Flag for Turkmenistan Weather past 2 weeks in Ashgabat, Turkmenistan

Now
72 °F

Passing clouds.


Feels Like: 77 °F
Forecast: 63 / 87 °F
Wind: 1 mph from Northwest

Location: Ashgabat

Current Time: Aug 28, 2015 at 1:31:25 AM

Latest Report: Aug 28, 2015 at 1:00 AM


Visibility: 5 mi

Pressure: 30.07 "Hg

Humidity: 44%

Dew point: 48 °F

Location of AshgabatLocation

Historic Weather in Ashgabat — Graph

°F

Ashgabat temperature yesterday

Maximum temperature yesterday: 84 °F (at 2:00 PM)
Minimum temperature yesterday: 66 °F (at 6:00 AM)
Average temperature yesterday: 77 °F

Past Weeks' High & Low Weather Summary

 TemperatureHumidityPressure
High109 °F (Aug 17, 2:30 PM)64% (Aug 26, 6:00 AM)30.07 "Hg (Aug 26, 6:00 AM)
Low66 °F (Aug 26, 6:00 AM)7% (Aug 13, 12:30 PM)29.62 "Hg (Aug 17, 3:00 PM)
Average87 °F25%29.84 "Hg
* Reported Midnight between Aug 12 and Aug 13 — Midnight between Aug 27 and Aug 28, Ashgabat, Weather by CustomWeather, © 2015

Note: Actual official high and low records may vary slightly from our data, if they occured in-between our weather recording intervals... More about our weather records

Advertising

Ashgabat weather history for previous 24 hours

 ConditionsComfort  
Time TempWeatherWind HumidityBarometerVisibility
12:00 AM
Fri, Aug 28
75 °FPassing clouds.3 mph34%30.07 "HgN/A
11:00 PM
Thu, Aug 27
75 °FPassing clouds.No wind34%30.07 "HgN/A
10:00 PM81 °FPassing clouds.1 mph26%30.04 "HgN/A
9:30 PM82 °FPassing clouds.1 mph23%30.04 "HgN/A
9:00 PM82 °FPassing clouds.1 mph21%30.04 "HgN/A
8:30 PM82 °FMostly cloudy.3 mph21%30.04 "HgN/A
8:00 PM82 °FMostly cloudy.3 mph21%30.01 "HgN/A
7:30 PM82 °FMostly cloudy.3 mph21%30.01 "HgN/A
6:30 PM84 °FMostly cloudy.3 mph20%30.01 "HgN/A
6:00 PM82 °FMostly cloudy.3 mph23%30.01 "HgN/A
5:30 PM82 °FMostly cloudy.6 mph25%30.01 "HgN/A
5:00 PM82 °FMostly cloudy.8 mph26%30.01 "HgN/A
4:30 PM84 °FMostly cloudy.6 mph18%30.01 "HgN/A
4:00 PM84 °FMostly cloudy.6 mph19%30.01 "HgN/A
3:30 PM84 °FMostly cloudy.3 mph18%30.01 "HgN/A
3:00 PM84 °FMostly cloudy.6 mph18%30.01 "HgN/A
2:00 PM84 °FPartly sunny.6 mph18%30.01 "HgN/A
1:00 PM82 °FMostly cloudy.1 mph19%30.01 "HgN/A
12:00 PM81 °FMostly cloudy.1 mph21%30.04 "HgN/A
11:00 AM79 °FBroken clouds.3 mph23%30.04 "HgN/A
10:00 AM79 °FBroken clouds.3 mph23%30.04 "HgN/A
9:00 AM75 °FScattered clouds.3 mph25%30.01 "HgN/A
8:00 AM73 °FScattered clouds.No wind31%30.01 "HgN/A
7:30 AM70 °FPassing clouds.3 mph38%30.01 "HgN/A
7:00 AM68 °FPassing clouds.3 mph40%30.01 "HgN/A
6:30 AM66 °FPassing clouds.6 mph46%30.01 "HgN/A
6:00 AM66 °FClear.6 mph46%30.01 "HgN/A
5:30 AM68 °FClear.8 mph46%29.98 "HgN/A
5:00 AM68 °FClear.6 mph46%29.98 "HgN/A
4:30 AM68 °FClear.3 mph49%29.95 "HgN/A
4:00 AM70 °FClear.3 mph43%29.98 "HgN/A
3:30 AM70 °FPassing clouds.6 mph43%29.95 "HgN/A
2:30 AM75 °FPassing clouds.1 mph29%29.95 "HgN/A
2:00 AM77 °FPartly cloudy.3 mph30%29.95 "HgN/A
1:30 AM75 °FPassing clouds.3 mph41%29.95 "HgN/A
1:00 AM75 °FPassing clouds.3 mph44%29.95 "HgN/A
Weather by CustomWeather, © 2015

See weather overviewHow to use our weather pages